Orbital Elements at Epoch 2459200.5 (2020-Dec-17.0) TDB
Reference: JPL 20 (heliocentric ecliptic J2000)
Element | Value | Uncertainty (1-sigma) | Units |
e | .1331107637184729 | 4.7739e-08 | |
a | 2.287390008887539 | 1.0606e-08 | au |
q | 1.982913777882514 | 1.0946e-07 | au |
i | 8.93035901132107 | 5.278e-06 | deg |
node | 217.801266530082 | 3.4672e-05 | deg |
peri | 275.1517610271458 | 4.0535e-05 | deg |
M | 272.8616815741687 | 2.2042e-05 | deg |
tp | 2459506.354891564574 (2021-Oct-18.85489156) | 7.8228e-05 | TDB |
period | 1263.597495939354 3.46 | 8.7884e-06 2.406e-08 | d yr |
n | .2849008494848094 | 1.9815e-09 | deg/d |
Q | 2.591866239892564 | 1.2018e-08 | au |
|
| | Orbit Determination Parameters
Additional Information
|